Torna al catalogo

COSMOS 1275 DEB

AttivoPO
NORAD 42199·DEBRIS·🇷🇺 Russia

Lanciato Jun 4, 1981 da Plesetsk Cosmodrome

Loading…

Prossimi Passaggi (prossime 24 ore)

TLE

AggiornatoSource: Space-Track

Epoca: Sep 14, 2026, 13:54 UTC

1 42199U 81053TP  26257.57947156  .00000505  00000-0  37357-3 0  9996
2 42199  82.9521 349.3431 0037782 269.9267  89.7570 13.93246075650028

Traccia COSMOS 1275 DEB in tempo reale con AllMySat

Download on the App Store